{"data":{"norad_id":49258,"intl_designator":"2021-087A","name":"SHIYAN-10 01 (SY-10 01)","alt_names":[],"object_type":"PAYLOAD","status":"ACTIVE","operator":null,"country":"PRC","launch_date":"2021-09-27","launch_site_code":"XICLF","launch_vehicle":null,"mission":null,"orbit_class":"UNKNOWN","rcs_meters":null,"size_class":null,"mass_kg":null,"dimensions":null,"purposes":[],"wikipedia_slug":null,"has_3d_model":false,"image_url":null,"decayed_at":null,"tle_current":{"epoch":"2026-05-22T23:33:00.274752Z","epoch_age_seconds":242692,"freshness":"STALE","line1":"1 49258U 21087A   26142.98125318  .00000657  00000+0  00000+0 0  9994","line2":"2 49258  63.1042 222.9236 6937178 269.8776  17.5667  2.00634461 34025","mean_motion":2.00634461,"eccentricity":0.6937178,"inclination_deg":63.1042,"raan_deg":222.9236,"arg_perigee_deg":269.8776,"mean_anomaly_deg":17.5667,"bstar":0,"rev_number":3402,"period_min":717.7231632207,"perigee_km":1754.9093289311,"apogee_km":38597.004668485,"semimajor_km":26554.093998708,"source":"CELESTRAK","updated_at":"2026-05-25T13:37:57.136745Z"}}}